Location: Paris
(48.6709°N, 2.3750°E)
Time: 17:20:23
(UTC+02:00)

CUBESAT XI-V - Visible Passes

Search period start: 26 June 2022 00:00
Search period end: 06 July 2022 00:00
Orbit: 666 x 692 km, 98.1° (Epoch: 25 June)

Date Brightness Start Highest point End Pass type
(mag) Time Alt. Az. Time Alt. Az. Time Alt. Az.
26 Jun ? 02:00:14 10° E 02:03:07 17° ENE 02:06:00 10° NNE visible
26 Jun ? 03:36:29 18° S 03:39:52 74° WSW 03:44:30 10° NNW visible
27 Jun ? 02:34:14 10° SE 02:38:18 31° ENE 02:42:21 10° N visible
27 Jun ? 04:12:26 16° SSW 04:15:31 34° W 04:19:45 10° NNW visible
28 Jun ? 01:36:42 10° ENE 01:37:15 10° NE 01:37:48 10° NE visible
28 Jun ? 03:10:00 16° SSE 03:13:39 64° ENE 03:18:13 10° N visible
28 Jun ? 04:48:26 10° SW 04:51:22 17° W 04:54:19 10° NW visible
29 Jun ? 02:09:01 10° ESE 02:12:17 20° ENE 02:15:34 10° NNE visible
29 Jun ? 03:45:57 19° S 03:49:10 60° W 03:53:44 10° NNW visible
30 Jun ? 02:43:30 11° SE 02:47:30 37° ENE 02:51:44 10° N visible
30 Jun ? 04:21:53 15° SW 04:24:52 28° W 04:28:51 10° NW visible
01 Jul ? 01:44:34 10° ENE 01:46:22 12° NE 01:48:10 10° NNE visible
01 Jul ? 03:19:27 18° SSE 03:22:53 78° ENE 03:27:30 10° NNW visible
01 Jul ? 04:58:27 10° WSW 05:00:45 14° W 05:03:03 10° WNW visible
02 Jul ? 02:17:52 10° ESE 02:21:27 23° ENE 02:25:02 10° N visible
02 Jul ? 03:55:24 19° SSW 03:58:27 49° W 04:02:55 10° NNW visible
03 Jul ? 02:52:57 14° SE 02:56:42 45° ENE 03:01:05 10° N visible
03 Jul ? 04:31:21 14° SW 04:34:12 23° W 04:37:53 10° NW visible
04 Jul ? 01:53:03 10° E 01:55:29 14° ENE 01:57:56 10° NNE visible
04 Jul ? 03:28:55 20° SSE 03:32:08 86° WSW 03:36:45 10° NNW visible
04 Jul ? 05:08:53 10° WSW 05:10:08 11° W 05:11:22 10° WNW visible
05 Jul ? 02:26:46 10° ESE 02:30:37 27° ENE 02:34:28 10° N visible
05 Jul ? 04:04:51 19° SSW 04:07:44 40° W 04:12:04 10° NNW visible
